Flag for United Kingdom Weather past 2 weeks in Derby, England, United Kingdom

Now
54 °F

Clear.


Feels Like: 52 °F
Forecast: 58 / 71 °F
Wind: 6 mph from Southeast

Location: East Midlands

Current Time: Aug 2, 2015 at 5:58:58 AM

Latest Report: Aug 2, 2015 at 5:20 AM


Visibility: 10 mi

Pressure: 30.04 "Hg

Humidity: 88%

Dew point: 50 °F

Location of DerbyLocation

Historic Weather in Derby — Graph

°F

Derby temperature yesterday

Maximum temperature yesterday: 70 °F (at 3:50 PM)
Minimum temperature yesterday: 52 °F (at 2:50 AM)
Average temperature yesterday: 59 °F

Past Weeks' High & Low Weather Summary

 TemperatureHumidityPressure
High73 °F (Jul 20, 4:20 PM)100% (Jul 24, 8:20 PM)30.15 "Hg (Jul 24, 8:20 PM)
Low43 °F (Jul 31, 3:20 AM)35% (Jul 31, 4:20 PM)29.33 "Hg (Jul 27, 1:50 AM)
Average58 °F74%29.85 "Hg
* Reported Jul 18 4:20 AM — Aug 2 4:20 AM, Derby, Weather by CustomWeather, © 2015

Note: Actual official high and low records may vary slightly from our data, if they occured in-between our weather recording intervals... More about our weather records

Advertising

Derby weather history for previous 24 hours

 ConditionsComfort  
Time TempWeatherWind HumidityBarometerVisibility
4:20 AM
Sun, Aug 2
55 °FClear.3 mph82%30.04 "Hg10 mi
3:50 AM55 °FClear.3 mph82%30.04 "Hg10 mi
3:20 AM55 °FClear.3 mph77%30.04 "Hg10 mi
2:50 AM55 °FPassing clouds.5 mph77%30.04 "HgN/A
2:20 AM55 °FPassing clouds.5 mph77%30.04 "HgN/A
1:50 AM55 °FPassing clouds.3 mph77%30.04 "HgN/A
1:20 AM55 °FPassing clouds.6 mph77%30.04 "HgN/A
12:50 AM57 °FPassing clouds.6 mph72%30.04 "HgN/A
12:20 AM55 °FPassing clouds.9 mph77%30.04 "HgN/A
11:50 PM
Sat, Aug 1
57 °FPassing clouds.8 mph72%30.04 "HgN/A
10:20 PM57 °FPassing clouds.10 mph82%30.04 "HgN/A
9:50 PM57 °FScattered clouds.6 mph94%30.01 "HgN/A
9:20 PM59 °FScattered showers. Scattered clouds.9 mph88%30.01 "HgN/A
8:50 PM59 °FScattered clouds.5 mph94%29.98 "HgN/A
8:20 PM59 °FScattered clouds.7 mph88%29.98 "HgN/A
7:50 PM61 °FScattered clouds.10 mph88%29.98 "HgN/A
7:20 PM59 °FSprinkles. Partly sunny.10 mph94%29.98 "HgN/A
6:20 PM63 °FScattered showers. Partly sunny.9 mph77%29.95 "HgN/A
5:50 PM66 °FScattered showers. Broken clouds.17 mph60%29.95 "HgN/A
5:20 PM66 °FScattered showers. Scattered clouds.18 mph60%29.95 "HgN/A
4:50 PM66 °FScattered clouds.20 mph60%29.95 "HgN/A
4:20 PM68 °FScattered showers. Scattered clouds.22 mph56%29.95 "HgN/A
3:50 PM70 °FScattered clouds.18 mph53%29.95 "HgN/A
3:20 PM68 °FScattered clouds.17 mph56%29.95 "HgN/A
2:50 PM68 °FScattered clouds.18 mph53%29.95 "HgN/A
2:20 PM68 °FScattered clouds.21 mph53%29.95 "HgN/A
1:50 PM68 °FScattered clouds.20 mph49%29.95 "HgN/A
1:20 PM66 °FScattered clouds.16 mph52%29.95 "HgN/A
12:50 PM66 °FScattered clouds.15 mph56%29.95 "HgN/A
12:20 PM66 °FScattered clouds.15 mph56%29.95 "HgN/A
11:50 AM63 °FScattered clouds.14 mph64%29.98 "HgN/A
11:20 AM63 °FScattered clouds.15 mph64%29.98 "HgN/A
10:50 AM64 °FScattered clouds.13 mph60%29.98 "HgN/A
10:20 AM63 °FScattered clouds.13 mph64%29.98 "HgN/A
9:50 AM61 °FSunny.12 mph68%29.98 "Hg10 mi
9:20 AM57 °FSunny.12 mph77%29.98 "Hg10 mi
8:50 AM57 °FSunny.12 mph72%29.95 "Hg10 mi
8:20 AM55 °FSunny.13 mph77%29.95 "Hg10 mi
7:50 AM54 °FSunny.12 mph82%29.95 "Hg10 mi
7:20 AM54 °FPartly sunny.12 mph77%29.95 "HgN/A
6:50 AM54 °FSunny.12 mph77%29.95 "Hg10 mi
6:20 AM52 °FClear.12 mph82%29.95 "Hg10 mi
5:50 AM52 °FClear.12 mph82%29.95 "Hg10 mi
5:20 AM52 °FClear.9 mph82%29.95 "Hg10 mi
Weather by CustomWeather, © 2015

See weather overviewHow to use our weather pages